Location: American Medical Response
(33.3472°N, 96.5511°W)
Time: 03:41:19
(UTC+00:00)

H-2A R/B - Pass Details

Date: 06 July 2022
Orbit: 576 x 652 km, 98.5° (Epoch: 17 August)

Event Time Altitude Azimuth Distance (km) Brightness Sun altitude
Rises 02:20:28 0° 19° (NNE) 2,953 5.8 -8.2°
Reaches altitude 10° 02:22:44 10° 24° (NNE) 2,047 4.9 -8.6°
Maximum altitude 02:27:05 52° 101° (E) 811 2.3 -9.3°
Drops below altitude 10° 02:31:27 10° 177° (S) 2,049 4.4 -10.1°
Sets 02:33:42 0° 182° (S) 2,956 5.2 -10.4°
